Farmington, MO

10:12 AM CST on December 06, 2019 (GMT -0600)
Farmington Regional

Weather History for KFAM - October, 2019

Change the Weather History Date:

Thursday, October 17, 2019

  Actual Average Record
Temperature  
Mean Temperature 48 °F -  
Max Temperature 63 °F 65 °F 84 °F (2016)
Min Temperature 35 °F 43 °F 28 °F (2001)
Degree Days  
Heating Degree Days 16    
Moisture  
Dew Point 38 °F    
Average Humidity 75    
Maximum Humidity 100    
Minimum Humidity 39    
Precipitation  
Precipitation 0.00 in - - ()
Sea Level Pressure  
Sea Level Pressure 30.11 in    
Wind  
Wind Speed 1 mph (SE)    
Max Wind Speed 6 mph    
Max Gust Speed -    
Visibility 10 miles    
Events      
Averages and records for this station are not official NWS values.
T = Trace of Precipitation, MM = Missing Value Source: NWS Daily Summary

Daily Weather History Graph

Daily Weather History Graph

Search for Another Location

Airport or City:

Astronomy

Oct. 17, 2019 Rise Set
Actual Time 7:11 AM CDT 6:21 PM CDT
Civil Twilight 6:45 AM CDT 6:48 PM CDT
Nautical Twilight 6:14 AM CDT 7:18 PM CDT
Astronomical Twilight 5:44 AM CDT 7:49 PM CDT
Moon 8:57 PM CDT (10/17) 10:40 AM CDT (10/17)
Length of Visible Light 12h 02m
Length of Day
11h 10m
Waning Gibbous, 86% of the Moon is Illuminated
Oct 17
Waning Gibbous
Oct 21
Last Quarter
Oct 27
New
Nov 4
First Quarter
Nov 12
Full

Hourly Weather History & Observations

Time (CDT) Temp. Windchill Dew Point Humidity Pressure Visibility Wind Dir Wind Speed Gust Speed Precip Events Conditions
1:56 AM 37.0 °F - 36.0 °F 96% 30.16 in 10.0 mi Calm Calm - N/A   Clear
2:56 AM 37.0 °F - 36.0 °F 96% 30.15 in 10.0 mi Calm Calm - N/A   Clear
3:56 AM 36.0 °F - 35.1 °F 97% 30.14 in 10.0 mi Calm Calm - N/A   Clear
4:56 AM 35.1 °F - 34.0 °F 96% 30.14 in 10.0 mi Calm Calm - N/A   Clear
5:56 AM 35.1 °F - 34.0 °F 96% 30.15 in 10.0 mi Calm Calm - N/A   Clear
6:56 AM 35.1 °F - 35.1 °F 100% 30.16 in 10.0 mi Calm Calm - N/A   Clear
7:56 AM 35.1 °F - 34.0 °F 96% 30.17 in 10.0 mi Calm Calm - N/A   Clear
8:56 AM 41.0 °F 39.0 °F 39.0 °F 93% 30.16 in 10.0 mi South 3.5 mph - N/A   Clear
9:56 AM 48.0 °F - 39.0 °F 71% 30.16 in 10.0 mi Calm Calm - N/A   Clear
10:56 AM 53.1 °F - 39.9 °F 61% 30.15 in 10.0 mi Calm Calm - N/A   Clear
11:56 AM 55.9 °F - 39.0 °F 53% 30.14 in 10.0 mi Calm Calm - N/A   Clear
12:56 PM 57.0 °F - 39.9 °F 53% 30.12 in 10.0 mi South 4.6 mph - N/A   Clear
2:56 PM 61.0 °F - 37.0 °F 41% 30.06 in 10.0 mi NNW 5.8 mph - N/A   Clear
3:56 PM 62.1 °F - 37.0 °F 39% 30.05 in 10.0 mi Calm Calm - N/A   Clear
4:56 PM 62.1 °F - 37.0 °F 39% 30.04 in 10.0 mi Calm Calm - N/A   Clear
5:56 PM 59.0 °F - 39.0 °F 48% 30.04 in 10.0 mi ESE 3.5 mph - N/A   Clear
6:56 PM 54.0 °F - 39.9 °F 59% 30.04 in 10.0 mi ESE 3.5 mph - N/A   Clear
7:56 PM 50.0 °F - 39.9 °F 68% 30.06 in 10.0 mi Calm Calm - N/A   Clear
8:56 PM 46.9 °F - 41.0 °F 80% 30.06 in 10.0 mi East 5.8 mph - N/A   Clear
9:56 PM 44.1 °F - 41.0 °F 89% 30.06 in 10.0 mi Calm Calm - N/A   Clear
10:56 PM 45.0 °F - 41.0 °F 86% 30.06 in 10.0 mi Calm Calm - N/A   Clear
11:56 PM 42.1 °F - 39.9 °F 92% 30.05 in 10.0 mi Calm Calm - N/A   Clear